Flag for France Weather past 2 weeks in Orléans, France

Now
46 °F

Overcast.


Feels Like: 41 °F
Forecast: 40 / 46 °F
Wind: 10 mph from Southwest

Location: Orleans Airport

Current Time: Dec 22, 2014 at 4:36:37 AM

Latest Report: Dec 22, 2014 at 3:30 AM


Visibility: N/A

Pressure: 30.45 "Hg

Humidity: 82%

Dew point: 41 °F

Location of OrléansLocation

Historic Weather in Orléans — Graph

°F

Orléans temperature yesterday

Maximum temperature yesterday: 46 °F (at 11:30 AM)
Minimum temperature yesterday: 43 °F (at 7:00 AM)
Average temperature yesterday: 45 °F

Past Weeks' High & Low Weather Summary

 TemperatureHumidityPressure
High55 °F (Dec 18, 10:30 AM)100% (Dec 7, 3:30 AM)30.60 "Hg (Dec 7, 3:30 AM)
Low28 °F (Dec 7, 7:00 AM)71% (Dec 11, 2:30 PM)29.68 "Hg (Dec 12, 2:00 PM)
Average43 °F90%30.14 "Hg
* Reported Dec 7 3:00 AM — Dec 22 3:30 AM, Orléans, Weather by CustomWeather, © 2014

Note: Actual official high and low records may vary slightly from our data, if they occured in-between our weather recording intervals... More about our weather records

Advertising

Orléans weather history for previous 24 hours

 ConditionsComfort  
Time TempWeatherWind HumidityBarometerVisibility
3:30 AM
Dec 22
46 °FOvercast.10 mph82%30.45 "HgN/A
3:00 AM46 °FOvercast.10 mph82%30.45 "HgN/A
2:30 AM46 °FOvercast.10 mph76%30.45 "HgN/A
2:00 AM46 °FOvercast.10 mph76%30.45 "HgN/A
1:30 AM46 °FOvercast.12 mph76%30.48 "HgN/A
1:00 AM46 °FOvercast.12 mph76%30.48 "HgN/A
12:30 AM46 °FOvercast.10 mph76%30.48 "HgN/A
12:00 AM46 °FOvercast.12 mph76%30.48 "HgN/A
11:30 PM
Dec 21
46 °FOvercast.10 mph76%30.51 "HgN/A
10:30 PM46 °FOvercast.10 mph76%30.51 "HgN/A
10:00 PM46 °FOvercast.10 mph76%30.51 "HgN/A
9:30 PM46 °FOvercast.10 mph76%30.51 "HgN/A
9:00 PM46 °FOvercast.12 mph76%30.51 "HgN/A
8:30 PM46 °FOvercast.12 mph76%30.51 "HgN/A
8:00 PM46 °FOvercast.12 mph71%30.51 "HgN/A
7:30 PM46 °FOvercast.13 mph71%30.51 "HgN/A
7:00 PM46 °FOvercast.13 mph71%30.51 "HgN/A
6:30 PM46 °FOvercast.12 mph71%30.51 "HgN/A
6:00 PM45 °FOvercast.9 mph76%30.54 "HgN/A
5:30 PM46 °FOvercast.9 mph71%30.54 "HgN/A
5:00 PM46 °FOvercast.9 mph76%30.54 "HgN/A
4:30 PM46 °FOvercast.10 mph76%30.54 "HgN/A
4:00 PM46 °FOvercast.12 mph76%30.54 "HgN/A
3:30 PM46 °FOvercast.12 mph76%30.54 "HgN/A
3:00 PM46 °FOvercast.13 mph76%30.54 "HgN/A
2:30 PM46 °FOvercast.14 mph71%30.54 "HgN/A
2:00 PM46 °FOvercast.15 mph76%30.54 "HgN/A
1:30 PM46 °FOvercast.12 mph82%30.57 "HgN/A
1:00 PM46 °FOvercast.13 mph82%30.57 "HgN/A
12:30 PM46 °FOvercast.12 mph82%30.57 "HgN/A
12:00 PM46 °FOvercast.10 mph82%30.57 "HgN/A
11:30 AM46 °FOvercast.8 mph82%30.60 "HgN/A
11:00 AM45 °FOvercast.5 mph87%30.60 "HgN/A
10:30 AM45 °FOvercast.5 mph81%30.60 "HgN/A
10:00 AM45 °FOvercast.5 mph81%30.57 "HgN/A
9:30 AM45 °FOvercast.7 mph81%30.57 "HgN/A
9:00 AM45 °FOvercast.5 mph81%30.57 "HgN/A
8:30 AM45 °FOvercast.6 mph81%30.57 "HgN/A
8:00 AM45 °FOvercast.7 mph81%30.57 "HgN/A
7:30 AM43 °FOvercast.3 mph93%30.57 "HgN/A
7:00 AM43 °FOvercast.6 mph93%30.57 "HgN/A
6:30 AM45 °FOvercast.6 mph87%30.57 "HgN/A
6:00 AM45 °FOvercast.7 mph87%30.57 "HgN/A
5:30 AM45 °FOvercast.7 mph87%30.57 "HgN/A
5:00 AM45 °FOvercast.7 mph87%30.57 "HgN/A
4:30 AM45 °FOvercast.7 mph87%30.57 "HgN/A
4:00 AM45 °FOvercast.7 mph87%30.57 "HgN/A
Weather by CustomWeather, © 2014

See weather overviewHow to use our weather pages